Weather in Montijo

Portugal     38°42′22″N   8°58′29″W
temp.,
°C
wind,
m/s
gust,
m/s
humid.,
%
clouds,
%
prec.,
mm/h
press.,
hPa
HPBL,
m
15 august, mon
mon1501:00+19nw49860 0.0 1015386
04:00+19nw49870 0.0 1014374
07:00+19nw48860 0.0 1014337
10:00+22nnw56670 0.0 1014297
13:00+25nw55490 0.0 1013478
16:00+25wnw88490 0.0 1012469
19:00+23nw79591 0.0 1012304
22:00+20nw58825 0.0 1013219
16 august, tue
tue1601:00+19nw36860 0.0 1013139
04:00+19wnw34870 0.0 1012124
07:00+19w248899 0.0 1012160
10:00+21nnw577173 0.1 1014457
13:00+24nw56510 0.1 1014570
16:00+24nnw911510 0.0 1014648
19:00+22nnw912620 0.0 1014566
22:00+19nnw813800 0.0 1017780
17 august, wed
wed1701:00+18nnw813810 0.0 1016731
04:00+18nnw813821 0.0 1015741
07:00+18n813810 0.0 1015793
10:00+21n911655 0.0 1016784
13:00+23nnw91152100 0.0 1015626
16:00+23nnw1012500 0.0 1015623
19:00+21nnw1012600 0.0 1015669
22:00+18nnw915810 0.0 1016603
18 august, thu
thu1801:00+19nnw612840 0.0 1015405
04:00+18n37864 0.0 1014251
07:00+18n35875 0.0 1015152
10:00+21nne34675 0.0 1016257
13:00+26nne34475 0.0 1016526
16:00+29nw45338 0.0 1013726
19:00+25nnw811473 0.0 1014205
22:00+21nnw45660 0.0 101672
19 august, fri
fri1901:00+20n34700 0.0 101654
04:00+20nne45660 0.0 101564
07:00+20nne46590 0.0 101687
10:00+25ne55415 0.0 1017182
13:00+29nnw12363 0.0 1016739
16:00+31wsw77310 0.0 1014345
19:00+28nnw911380 0.0 1013207
22:00+24nnw45520 0.0 101537